Regional Weather Roundup
Issued by NWS

Home | Current Version | Previous Version | Graphics & Text | Print | Product List | Glossary Off
Versions: 1 2 3 4 5 6 7 8 9 10 11 12 13 14 15 16 17 18 19 20 21 22 23 24 25 26 27 28 29 30 31 32 33 34 35 36 37 38 39 40 41 42 43 44 45 46 47 48 49 50

000
ASUS43 KLOT 282121
RWRIL

ILLINOIS REGIONAL WEATHER ROUNDUP
NATIONAL WEATHER SERVICE CHICAGO/ROMEOVILLE IL
400 PM CDT TUE JUL 28 2015

NOTE: "FAIR" INDICATES FEW OR NO CLOUDS BELOW 12,000 FEET WITH NO
SIGNIFICANT WEATHER AND/OR OBSTRUCTIONS TO VISIBILITY.

* THESE STATIONS ARE NOT UNDER NWS QUALITY CONTROL. THEY ALSO MAY NOT
  REPORT WEATHER SUCH AS PRECIPITATION OR FOG.

ILZ001-002-007-009-015-016-024-282200-
NORTHWEST ILLINOIS

CITY           SKY/WX    TMP DP  RH WIND       PRES   REMARKS
MOLINE         CLOUDY    82  75  79 S5        29.88F HX  89
STERLING*      CLOUDY    82  73  74 S3        29.89R HX  88
SAVANNA*       CLOUDY    82  73  75 SE7       29.89R HX  87
$$

ILZ003-004-008-010-011-017-018-282200-
NORTH CENTRAL ILLINOIS

CITY           SKY/WX    TMP DP  RH WIND       PRES   REMARKS
ROCKFORD       CLOUDY    84  73  69 S9        29.90R HX  90
FREEPORT*      CLOUDY    80  74  84 S8        29.92R HX  84
ROCHELLE*      PTSUNNY   83  74  74 S8        29.89F HX  90
DE KALB*       PTSUNNY   85  74  69 SE15      29.89F HX  93
PERU*          CLOUDY    81  75  81 S12       29.89F HX  86
$$

ILZ005-006-012>014-019>023-282200-
NORTHEAST ILLINOIS

CITY           SKY/WX    TMP DP  RH WIND       PRES   REMARKS
CHICAGO-OHARE  PTSUNNY   90  68  48 SE7       29.87F HX  94
CHICAGO-MIDWAY PTSUNNY   93  68  43 E12       29.89F HX  97
AURORA         PTSUNNY   88  72  58 S16       29.88F HX  94
LANSING*       MOSUNNY   90  65  44 S7        29.91F HX  91
JOLIET*        MOSUNNY   88  73  60 SE6       29.88F HX  95
WAUKEGAN       MOSUNNY   81  68  64 SE13      29.87F HX  84
DUPAGE AIRPORT MOSUNNY   88  70  55 S8        29.87F HX  93
KANKAKEE*      MOSUNNY   88  71  57 CALM      29.92F HX  94
WHEELING       MOSUNNY   86  69  56 E13       29.89F HX  90
MORRIS*        PTSUNNY   86  74  68 S8        29.88F HX  94
ROMEOVILLE*    MOSUNNY   88  67  49 SE8       29.88F HX  91
NORTHERLY ISL    N/A     81  70  69 E14         N/A  HX  84
$$

LMZ740>746-282200-
SOUTHERN LAKE MICHIGAN

STATION/POSITION SKY/WX   TEMP    WIND        PRES    VSBY  WAVE
                          AIR SEA DIR/SP/G                  HT/PER
                          (F)     (DEG/KT/KT) (MB)    (MI)  (FT/S)
HARRISON CRIB              78      90/ 22/ 23   N/A
BURNHAM HARBOR             81      90/ 14       N/A
CALUMET HARBOR             79      40/  9/ 11   N/A
BURNS HARBOR               87     200/  4/ 10 1014.9F
MICHIGAN CITY              81      20/  9/  9   N/A
MICHIGAN CITY 6N           79 78   50/  8/  8   N/A           0
ST. JOSEPH                 80 79   70/  6/  6   N/A           0
$$

ILZ025>027-034>036-040-047-049-050-058-095>099-282200-
WEST-CENTRAL ILLINOIS

CITY           SKY/WX    TMP DP  RH WIND       PRES   REMARKS
QUINCY         SUNNY     92  78  63 S8        29.91F HX 107
GALESBURG*     CLOUDY    84  78  82 SE6       29.90F HX  94
MACOMB*        CLOUDY    90  80  72 S3        29.92F HX 106
JACKSONVILLE*  MOSUNNY   94  80  63 N5        29.91F HX 112
PITTSFIELD*    MOSUNNY   93  77  60 CALM      29.93S HX 107
$$

ILZ028>032-037-038-041>044-048-051>054-059>061-282200-
CENTRAL ILLINOIS

CITY           SKY/WX    TMP DP  RH WIND       PRES   REMARKS
PONTIAC        CLOUDY    83  78  87 SE3       29.92F HX  93
BLOOMINGTON    CLOUDY    74  72  93 S3        29.95F
DECATUR        TSTM      76  72  87 NE7       29.96S
PEORIA         PTSUNNY   83  73  72 SE7       29.91F HX  89
LACON*         CLOUDY    77  70  80 S5        29.90F
LINCOLN*       PTSUNNY   83  72  70 E9        29.93F HX  88
SPRINGFIELD    MOSUNNY   94  79  61 W6        29.93F HX 111
TAYLORVILLE    MOSUNNY   90  77  66 CALM      29.94F HX 102
$$

ILZ033-039-045-046-055>057-062-063-282200-
EAST-CENTRAL ILLINOIS

CITY           SKY/WX    TMP DP  RH WIND       PRES   REMARKS
CHAMPAIGN      LGT RAIN  75  73  93 CALM      29.96F
DANVILLE*      MOSUNNY   87  75  68 CALM      29.93F HX  96
RANTOUL*       PTSUNNY   82  72  72 W9        29.95F THUNDER HX  86
MATTOON        MOSUNNY   92  72  51 VRB5      29.95F HX  99
PARIS*         CLOUDY    89  75  64 CALM      29.96F HX  99
$$

ILZ079-100>102-282200-
SOUTHWEST ILLINOIS

CITY           SKY/WX    TMP DP  RH WIND       PRES   REMARKS
BELLEVILLE     TSTM      88  79  74 NW16      29.92F HX 102
CAHOKIA*       PTSUNNY   88  72  58 E8G22     29.92R HAZE    HX  94
SPARTA*        MOSUNNY   94  77  59 W5        29.93F HX 108
$$

ILZ064>066-069>071-074>076-080>082-084>086-088>090-092>094-282200-
SOUTH-CENTRAL ILLINOIS

CITY           SKY/WX    TMP DP  RH WIND       PRES   REMARKS
CARBONDALE     SUNNY     93  78  61 W6        29.93F HX 108
CAIRO*         MOSUNNY   92  79  65 S7        29.94S HX 109
EFFINGHAM*     MOSUNNY   92  71  51 S3        29.96S HX  98
MARION         PTSUNNY   93  79  62 SW8       29.94F HX 110
MT. VERNON     PTSUNNY   93  77  59 W5        29.92F THUNDER HX 107
CENTRALIA*     PTSUNNY   93  75  55 W3        29.93F HX 104
SALEM*         SUNNY     94  76  56 NW5       29.93F HX 107
METROPOLIS*    SUNNY     94  80  63 SW7       29.94F HX 112
$$

ILZ067-068-072-073-078-083-087-091-282200-
SOUTHEAST ILLINOIS

CITY           SKY/WX    TMP DP  RH WIND       PRES   REMARKS
LAWRENCEVILLE  PTSUNNY   93  77  59 VRB3      29.95S HX 107
FLORA*         SUNNY     92  76  59 CALM      29.94F HX 103
FAIRFIELD*     MOSUNNY   92  79  67 CALM      29.92F HX 109
HARRISBURG*    MOSUNNY   95  78  59 SW10      29.93F HX 111
ROBINSON*      MOSUNNY   89  75  63 W3        29.95F HX  99
CARMI*         MOSUNNY   91  74  57 CALM      29.93S HX  99
$$

ABBREVIATIONS USED IN REMARKS
   TC - TEMPERATURE IN CELSIUS
  WCI - WIND CHILL INDEX
   HX - HEAT INDEX
  VSB - VISIBILITY
$$



USA.gov is the U.S. government's official web portal to all federal, state and local government web resources and services.